This demonstration page uses our WeatherBlox Daily Observations layout. Learn more.

Hourly Observations for December 19, 2016

Temp ( °F °C ) Dew Point ( °F °C ) Humidity (%) Winds ( mph kmh ) Pressure ( in mb ) Visibility ( mi km ) Precip ( " mm )
12:54 am 00:54 Clear 6 -14.4 0 -17.8 76 76 SSE 8 13 30.65 1038 10 16.0934 0 0
1:54 am 01:54 Clear 6 -14.4 0 -17.8 76 76 S 7 11 30.64 1038 10 16.0934 0 0
2:54 am 02:54 Clear 5 -15 0 -17.8 79 79 S 8 13 30.63 1037 10 16.0934 0 0
3:54 am 03:54 Clear 5 -15 0 -17.8 79 79 S 6 9 30.62 1037 10 16.0934 0 0
4:54 am 04:54 Clear 6 -14.4 0 -17.8 76 76 SSE 7 11 30.61 1037 10 16.0934 0 0
5:54 am 05:54 Clear 7 -13.9 1 -17.2 76 76 S 7 11 30.59 1036 10 16.0934 0 0
6:54 am 06:54 Clear 7 -13.9 1 -17.2 76 76 S 10 17 30.6 1036 10 16.0934 0 0
7:54 am 07:54 Sunny 6 -14.4 0 -17.8 76 76 S 7 11 30.62 1037 10 16.0934 0 0
8:54 am 08:54 Sunny 10 -12.2 3 -16.1 73 73 SSW 10 17 30.61 1037 10 16.0934 0 0
9:54 am 09:54 Sunny 15 -9.4 6 -14.4 67 67 SSW 10 17 30.59 1036 10 16.0934 0 0
10:54 am 10:54 Sunny 19 -7.2 10 -12.2 68 68 SSW 12 19 30.57 1035 10 16.0934 0 0
11:54 am 11:54 Sunny 24 -4.4 13 -10.6 62 62 SSW 14 22 30.53 1034 10 16.0934 0 0
12:54 pm 12:54 Sunny 28 -2.2 17 -8.3 63 63 SSW 18 30 30.49 1032 10 16.0934 0 0
1:54 pm 13:54 Sunny 31 -0.6 19 -7.2 61 61 SSW 20 31 30.41 1030 10 16.0934 0 0
2:54 pm 14:54 Sunny 31 -0.6 19 -7.2 61 61 SSW 21 33 30.38 1029 10 16.0934 0 0
3:54 pm 15:54 Sunny 30 -1.1 19 -7.2 64 64 SSW 20 31 30.36 1028 10 16.0934 0 0
4:54 pm 16:54 Sunny 28 -2.2 18 -7.8 66 66 S 18 30 30.33 1027 10 16.0934 0 0
5:54 pm 17:54 Clear 26 -3.3 17 -8.3 69 69 S 20 31 30.31 1026 10 16.0934 0 0
6:54 pm 18:54 Clear 25 -3.9 16 -8.9 69 69 SSW 15 24 30.35 1028 10 16.0934 0 0
7:54 pm 19:54 Clear 24 -4.4 16 -8.9 71 71 SSW 20 31 30.32 1027 10 16.0934 0 0
8:54 pm 20:54 Clear 23 -5 15 -9.4 72 72 SSW 21 33 30.27 1025 10 16.0934 0 0
9:54 pm 21:54 Clear 24 -4.4 15 -9.4 68 68 SSW 21 33 30.27 1025 10 16.0934 0 0
10:54 pm 22:54 Clear 25 -3.9 15 -9.4 66 66 SSW 21 33 30.24 1024 10 16.0934 0 0
11:54 pm 23:54 Clear 24 -4.4 14 -10 65 65 SSW 15 24 30.23 1024 10 16.0934 0 0

Powered by AerisWeather